www.pogodaiklimat.ru
ПОГОДА в Монтего-Бее
Время
(UTC), дата
03 13.10
06 13.10
09 13.10
12 13.10
15 13.10
18 13.10
21 13.10
00 14.10
03 14.10
06 14.10
09 14.10
12 14.10
15 14.10
18 14.10
21 14.10
00 15.10
03 15.10
06 15.10
09 15.10
12 15.10
15 15.10
18 15.10
21 15.10
00 16.10
03 16.10
06 16.10
09 16.10
12 16.10
15 16.10
18 16.10
21 16.10
00 17.10
03 17.10
06 17.10
09 17.10
12 17.10
15 17.10
18 17.10
21 17.10
00 18.10
03 18.10
06 18.10
09 18.10
12 18.10
15 18.10
18 18.10
21 18.10
00 19.10
03 19.10
06 19.10
09 19.10
12 19.10
15 19.10
18 19.10
21 19.10
Ветер
(напр.,м/с)
Видим. Явления Облачность Т
(С)
Тd
(С)
f
(%)
Тe
(С)
Тes
(С)
Комфортность P
(гПа)
Po
(гПа)
Тmin
(С)
Tmax
(С)
R
(мм)
R24
(мм)
S
(см)
нст 1 20 км мгла 3/3 660 м
[Cu Sc Ci sp]
+27.7 +24.1 81 +39 +39 очень
душно
1012.9 1012.0
Ю 2 20 км мгла 3/1 660 м
[Cu Sc Ci sp]
+27.0 +24.3 85 +38 +38 очень
душно
1012.1 1011.2 +26.3 +33.5
нст 1 20 км мгла 3/1 660 м
[Cu Sc Ci fib]
+26.7 +24.0 85 +37 +37 очень
душно
1010.9 1010.0
ЮВ 2 24 км мгла 4/1 660 м
[Cb cap Ci ing]
+27.2 +24.6 86 +39 +39 очень
душно
1011.9 1011.0 +25.3 +33.5
СВ 5 24 км мгла 3/1 660 м
[Cb cap Ci ing]
+30.2 +24.5 72 +43 +49 опасность
перегрева
1012.9 1012.0
СВ 7 22 км мгла 3/3 660 м
[Cb cap Ci sp]
+32.5 +25.1 65 +46 +49 опасность
перегрева
1011.4 1010.5 +25.3 +33.0
ЮВ 3 18 км в посл. час гроза 8/6 600 м
[Cb cap Ac As Ci ing]
+29.7 +23.5 69 +40 +41 очень
душно
1010.5 1009.6
Ю 2 20 км зарница 3/1 660 м
[Cb cap Ci ing]
+27.7 +24.7 84 +39 +39 очень
душно
1010.9 1010.0 +25.3 +33.3
Ю 2 20 км зарница 3/3 600 м
[Cb cap Ci fib]
+28.0 +23.4 76 +38 +38 очень
душно
1012.6 1011.7
Ю 2 20 км мгла 3/1 660 м
[Cu Sc Ci fib]
+27.2 +23.0 78 +36 +36 очень
душно
1011.6 1010.7 +25.3 +33.3
ЮВ 2 20 км мгла 3/1 660 м
[Cu Sc Ci fib]
+26.6 +24.3 87 +37 +37 очень
душно
1009.7 1008.8
В 2 24 км мгла 4/1 660 м
[Cu Sc Ci sp]
+27.7 +24.7 84 +39 +40 очень
душно
1010.6 1009.7 +25.5 +33.3
СВ 4 24 км мгла 3/1 660 м
[Cb cap Ac As Ci ing]
+30.8 +24.2 68 +43 +50 опасность
перегрева
1012.6 1011.7
СВ 6 24 км мгла 3/3 660 м
[Cb cap Ci ing]
+33.0 +26.2 68 +49 +54 опасность
перегрева
1010.6 1009.7 +25.5 +33.8
Ю 3 24 км мгла {гроза} 6/5 600 м
[Cb cap Ac lent Ci ing]
+28.0 +22.3 71 +37 +38 очень
душно
1009.3 1008.4
нст 1 20 км зарница 5/5 660 м
[Cb cap Ci sp]
+28.2 +24.5 80 +40 +40 очень
душно
1011.1 1010.2 +25.5 +33.8
нст 1 20 км мгла 1/1 720 м
[Cu Sc]
+27.6 +23.7 79 +38 +38 очень
душно
1013.1 1011.2
нст 1 20 км 1/1 720 м
[Cu hum]
+26.6 +23.2 82 +36 +36 очень
душно
1011.0 1010.1 +25.5 +33.8
ЮВ 2 20 км 1/1 720 м
[Cu hum]
+26.9 +23.8 83 +37 +37 очень
душно
1010.0 1009.1
нст 1 20 км мгла 3/3 660 м
[Cb cap Ci sp]
+26.5 +23.6 84 +36 +36 очень
душно
1011.4 1010.5 +24.9 +33.8
СВ 7 20 км мгла 3/1 660 м
[Cb cap Ci ing]
+31.0 +24.3 68 +43 +46 опасность
перегрева
1012.4 1011.5
СВ 7 20 км гроза без осадков 4/4 600 м
[Cb cap Ac lent Ci ing]
+32.8 +26.8 71 +50 +53 опасность
перегрева
1010.5 1009.6 +24.9 +33.4
ЮЗ 2 24 км мгла {гроза} 8/6 600 м
[Cb cap Ac As Ci ing]
+28.2 +23.1 74 +38 +39 очень
душно
1010.2 1009.3
ЮВ 3 24 км зарница {гроза} 9/1 660 м
[Cb cap Ci sp]
+27.8 +23.3 77 +38 +38 очень
душно
1011.3 1010.4 +24.9 +33.4
нст 1 24 км зарница 9/1 660 м
[Cb cap Ci sp]
+27.2 +23.1 78 +36 +36 очень
душно
1012.8 1011.9
ЮВ 2 24 км зарница 6/1 660 м
[Cb cap Ci sp]
+27.3 +24.1 83 +38 +38 очень
душно
1011.8 1010.9 +24.9 +33.4
ЮВ 3 24 км мгла 6/1 660 м
[Cb cap Ci sp]
+27.0 +24.1 84 +37 +37 очень
душно
1010.6 1009.7
ЮВ 4 24 км мгла 9/1 660 м
[Cb cap Ac As Ci ing]
+27.5 +23.0 76 +37 +37 очень
душно
1012.6 1011.7 +25.7 +33.4
СВ 7 26 км мгла 8/1 660 м
[Cu Sc Ci sp]
+31.2 +24.3 67 +43 +46 опасность
перегрева
1013.8 1012.9
СВ 6 24 км мгла 8/3 600 м
[Cb cap Ac As Ci sp]
+32.6 +26.6 71 +50 +52 опасность
перегрева
1011.4 1010.5 +25.7 +33.4
В 4 24 км мгла {гроза} 8/6 600 м
[Cb cap Ci ing]
+29.4 +25.6 80 +43 +45 опасность
перегрева
1010.4 1009.5
В 2 20 км мгла {гроза} 5/3 660 м
[Cu Sc Ci fib]
+29.0 +24.7 78 +41 +41 опасность
перегрева
1011.4 1010.5 +26.1 +33.4
нст 1 20 км мгла 3/3 660 м
[Cu Sc Ci fib]
+28.1 +25.2 84 +41 +41 опасность
перегрева
1013.0 1012.1
В 2 20 км зарница 3/3 660 м
[Cb cap Ci sp]
+27.8 +25.9 89 +41 +41 опасность
перегрева
1011.9 1011.0 +26.1 +33.4
В 2 20 км мгла 3/3 660 м
[Cb cap Ci sp]
+27.1 +24.7 87 +39 +39 очень
душно
1010.9 1010.0
нст 1 24 км мгла 8/1 660 м
[Cu Sc Ac lent Ci sp]
+27.0 +25.3 90 +39 +39 очень
душно
1012.0 1011.1 +26.0 +33.4
СВ 5 24 км мгла 4/1 660 м
[Cu Sc Ci sp]
+30.7 +25.0 72 +44 +50 опасность
перегрева
1012.7 1011.8
СВ 7 24 км мгла 3/1 660 м
[Cb cap Ci sp]
+32.8 +26.6 70 +50 +54 опасность
перегрева
1011.2 1010.3 +26.0 +33.7
СВ 6 20 км мгла 5/4 660 м
[Cb cap Ac lent Ci ing]
+30.6 +25.3 73 +44 +45 опасность
перегрева
1009.7 1008.8
В 2 20 км зарница {гроза} 5/5 600 м
[Cb cap Ci ing]
+29.2 +25.7 81 +43 +43 опасность
перегрева
1011.2 1010.3 +26.0 +33.7
нст 1 20 км мгла 1/1 660 м
[Cu Sc]
+28.1 +24.9 83 +40 +40 очень
душно
1012.2 1011.3
В 3 20 км мгла 1/1 660 м
[Cu Sc]
+27.5 +25.7 90 +41 +41 опасность
перегрева
1010.5 1009.6 +26.0 +33.7
Ю 3 20 км мгла 1/1 660 м
[Cu Sc]
+27.2 +24.3 84 +38 +38 очень
душно
1009.0 1008.1
нст 1 26 км мгла 3/3 660 м
[Cb cap]
+27.4 +25.8 91 +41 +41 опасность
перегрева
1010.6 1009.7 +25.3 +33.7
нст 1 26 км мгла 9/9 540 м
[Cb cap Ac As Ci ing]
+29.4 +24.4 75 +42 +43 опасность
перегрева
1012.2 1011.3
ЮВ 10 4000 м сильн. гроза, ливневой дождь 9/8 480 м
[Cb cap Cs]
+31.5 +25.2 69 +45 +45 опасность
перегрева
1011.1 1010.2 +25.8 +32.5
ЮВ 2 26 км мгла {гроза} 9/3 540 м
[Cb cap Ac As Cs]
+28.4 +23.9 77 +39 +41 очень
душно
1009.3 1008.4
Ю 2 20 км мгла {гроза} 4/1 720 м
[Cu Sc Ci sp]
+26.0 +25.6 98 +38 +38 очень
душно
1009.6 1008.7 +23.6 +32.5 28
Ю 3 20 км мгла 1/1 720 м
[Cu Sc Ci fib]
+26.3 +22.2 78 +34 +34 очень
душно
1010.3 1009.4
ЮВ 4 20 км мгла 1/1 720 м
[Cu hum Ci fib]
+26.1 +22.1 79 +34 +34 очень
душно
1010.2 1009.3 +23.6 +32.5
нст 1 20 км мгла 1/1 720 м
[Cu hum Ci fib]
+25.8 +22.0 80 +33 +33 очень
душно
1008.8 1007.9
В 3 20 км мгла 5/3 660 м
[Cb cap Ci sp]
+27.3 +23.4 79 +37 +37 очень
душно
1009.7 1008.8 +24.2 +32.5 28.1
Ю 3 22 км мгла 6/4 660 м
[Cb cap Ac cuf Ci ing]
+30.4 +24.1 69 +42 +47 опасность
перегрева
1010.4 1009.5
ЮЗ 3 10 км гроза, ливневой дождь 9/8 540 м
[Cb cap Ac cuf Ci ing]
+24.2 +24.0 99 +33 +35 очень
душно
1008.9 1008.0 +24.0 +32.8 24
В 11 1000 м сильн. гроза, ливневой дождь 9/9 540 м
[Cb cap Ac cuf]
+23.8 +22.3 91 +31 +31 очень
душно
1008.3 1007.4
Местоположение метеостанции Монтего-Бей (Ямайка): широта 18.50 долгота -77.91 высота над уровнем моря 8 м.
В архиве по умолчанию представлена погода в Монтего-Бее за последнюю неделю. Архивные данные за месяц целиком и за предыдущие месяцы, начиная с января 2011 года, Вы можете получить, выбрав интересующий диапазон дат из раскрывающегося списка и нажав кнопку "Найти!".
*Определитесь, кто Вы:
Внимание! Время в таблицах - всемирное. Для получения местного времени необходимо прибавить поправку, которая равна -5 ч.
Смотрите также архив погоды в соседних городах и на ближайших метеорологических станциях:
Партнеры нашего сайта:      
Пояснения к столбцам:
  • Ветер - указаны скорость ветра в м/с - средняя за 10 мин, порывы в срок и между сроками (в фигурных скобках) и направление, откуда дует ветер: С - северный,
  • СВ - северо-восточный, В - восточный, ЮВ - юго-восточный, Ю - южный, ЮЗ - юго-западный, З - западный, СЗ - северо-западный.
  • Видимость - горизонтальная дальность видимости в метрах или километрах. При видимости от 1 до 10 км при отсутствии осадков обычно наблюдается дымка, при ухудшении видимости до 1 км и менее - туман. В сухую погоду видимость может ухудшаться дымом, пылью или мглою.
  • Явления - указаны атмосферные явления, наблюдавшиеся в срок или в последний час перед сроком; фигурными скобками обозначены явления, наблюдавшиеся между сроками (за 1-3 часа до срока); квадратными скобками обозначены град или гололедные отложения с указанием их диаметра в мм.
  • Облачность - указаны через наклонную черту общая и нижняя облачность в баллах и высота нижней границы облаков в метрах; квадратными скобками обозначены формы облаков: Ci - перистые, Cs - перисто-слоистые, Cc - перисто-кучевые, Ac - высококучевые, As - высокослоистые, Sc - слоисто-кучевые, Ns - слоисто-дождевые, Cu - кучевые, Cb - кучево-дождевые. Подробнее классификацию облаков см. в Атласе облаков (PDF).
  • T - Температура воздуха - температура, измеренная на высоте 2 м над землей.
  • Td - Температура точки росы - температура, при понижении до которой содержащийся в воздухе водяной пар достигнет насыщения.
  • f - Относительная влажность воздуха - влажноcть воздуха, измеренная на высоте 2 м над землей.
  • Te - Эффективная температура - температура, которую ощущает одетый по сезону человек в тени. Характеристика душности погоды. При расчете учитывается влияние влажности воздуха и скорости ветра на теплоощущения человека.
  • Tes - Эффективная температура на солнце - температура, которую ощущает человек, с поправкой на солнечный нагрев. Характеристика знойности погоды. Зависит от высоты солнца над горизонтом, облачности и скорости ветра. Ночью, в пасмурную погоду, а также при ветре 12 м/с и более поправка равна нулю.
  • P - Атмосферное давление - приведенное к уровню моря атмосферное давление.
  • Po - Атмосферное давление - измеренное на уровне метеостанции атмосферное давление.
  • Tmin - Минимальная температура - минимум температуры воздуха на высоте 2 м над землей.
  • Tmax - Максимальная температура - максимум температуры воздуха на высоте 2 м над землей.
  • R - Количество осадков - Количество выпавших осадков за период времени, мм. При наведении курсора мыши на число - период времени, за который выпало указанное количество осадков.
  • R24 - Количество осадков - Количество выпавших осадков за 24 часа, мм.
  • S - Снежный покров - Высота снежного покрова, см. При наведении курсора мыши на число - состояние снежного покрова и степень покрытия местности в баллах.